Lynchburg, VA

11:13 AM EDT on October 16, 2019 (GMT -0400)
Lynchburg Regional-Glenn

Weather History for KLYH - August, 2019

Change the Weather History Date:

Saturday, August 24, 2019

  Actual Average Record
Temperature  
Mean Temperature 68 °F 74 °F  
Max Temperature 75 °F 85 °F 97 °F (1968)
Min Temperature 61 °F 62 °F 49 °F (1923)
Degree Days  
Heating Degree Days 0 0  
Month to date heating degree days 0 0  
Since 1 June heating degree days 2 15  
Since 1 July heating degree days 0 1  
Cooling Degree Days 3 9  
Month to date cooling degree days 315 230  
Year to date cooling degree days 1170 844  
Since 1 June cooling degree days 958 762  
Growing Degree Days 18 (Base 50)    
Moisture  
Dew Point 59 °F    
Average Humidity 79    
Maximum Humidity 100    
Minimum Humidity 52    
Precipitation  
Precipitation 0.23 in 0.11 in 2.55 in (2010)
Month to date precipitation 3.14 2.52  
Year to date precipitation 27.48 27.19  
Snow  
Snow 0.00 in - - ()
Month to date snowfall 0.0  
Since 1 June snowfall 0.0  
Since 1 July snowfall 0.0  
Snow Depth 0.00 in    
Sea Level Pressure  
Sea Level Pressure 30.15 in    
Wind  
Wind Speed 5 mph ()    
Max Wind Speed 13 mph    
Max Gust Speed 19 mph    
Visibility 9.7 miles    
Events Rain    
T = Trace of Precipitation, MM = Missing Value Source: Averaged Metar Reports

Daily Weather History Graph

Daily Weather History Graph

Search for Another Location

Airport or City:

Astronomy

Aug. 24, 2019 Rise Set
Actual Time 6:40 AM EDT 7:57 PM EDT
Civil Twilight 6:13 AM EDT 8:24 PM EDT
Nautical Twilight 5:40 AM EDT 8:56 PM EDT
Astronomical Twilight 5:06 AM EDT 9:30 PM EDT
Moon 12:35 AM EDT (8/24) 3:07 PM EDT (8/24)
Length of Visible Light 14h 11m
Length of Day
13h 16m
Last Quarter, 39% of the Moon is Illuminated
Aug 24
Last Quarter
Aug 30
New
Sep 5
First Quarter
Sep 14
Full
Sep 21
Last Quarter

Hourly Weather History & Observations

Time (EDT) Temp. Dew Point Humidity Pressure Visibility Wind Dir Wind Speed Gust Speed Precip Events Conditions
12:54 AM 61.0 °F 60.1 °F 97% 30.12 in 4.0 mi East 8.1 mph - 0.17 in Rain Light Rain
1:54 AM 62.1 °F 60.1 °F 93% 30.12 in 10.0 mi ENE 3.5 mph - 0.01 in Rain Light Rain
2:54 AM 62.1 °F 61.0 °F 96% 30.10 in 10.0 mi Calm Calm - 0.04 in   Overcast
3:54 AM 62.1 °F 61.0 °F 96% 30.10 in 10.0 mi North 3.5 mph - N/A   Overcast
4:54 AM 63.0 °F 61.0 °F 93% 30.10 in 10.0 mi Calm Calm - N/A   Overcast
5:54 AM 62.1 °F 60.1 °F 93% 30.12 in 9.0 mi NNE 3.5 mph - 0.01 in Rain Light Rain
6:54 AM 63.0 °F 60.1 °F 90% 30.14 in 10.0 mi NNE 4.6 mph - 0.00 in   Overcast
7:54 AM 63.0 °F 61.0 °F 93% 30.15 in 10.0 mi NNE 5.8 mph - N/A   Overcast
8:54 AM 64.9 °F 60.1 °F 84% 30.17 in 10.0 mi NNE 6.9 mph - N/A   Overcast
9:54 AM 64.9 °F 60.1 °F 84% 30.18 in 10.0 mi NNE 6.9 mph - N/A   Overcast
10:54 AM 66.0 °F 59.0 °F 78% 30.19 in 10.0 mi NNE 10.4 mph - N/A   Overcast
11:54 AM 66.9 °F 59.0 °F 76% 30.19 in 10.0 mi NNE 9.2 mph - N/A   Overcast
12:54 PM 69.1 °F 59.0 °F 70% 30.19 in 10.0 mi NNE 8.1 mph - N/A   Overcast
1:54 PM 72.0 °F 57.9 °F 61% 30.18 in 10.0 mi NE 8.1 mph 17.3 mph N/A   Overcast
2:54 PM 73.0 °F 57.0 °F 57% 30.17 in 10.0 mi East 6.9 mph - N/A   Overcast
3:54 PM 73.9 °F 55.9 °F 53% 30.16 in 10.0 mi East 6.9 mph - N/A   Overcast
4:54 PM 73.9 °F 55.0 °F 52% 30.14 in 10.0 mi East 8.1 mph - N/A   Overcast
5:54 PM 73.0 °F 57.0 °F 57% 30.15 in 10.0 mi Variable 5.8 mph - N/A   Overcast
6:54 PM 71.1 °F 59.0 °F 66% 30.14 in 10.0 mi Calm Calm - N/A   Mostly Cloudy
7:54 PM 69.1 °F 60.1 °F 73% 30.15 in 10.0 mi North 5.8 mph - N/A   Overcast
8:54 PM 63.0 °F 61.0 °F 93% 30.17 in 10.0 mi Calm Calm - N/A   Scattered Clouds
9:54 PM 64.0 °F 62.1 °F 93% 30.18 in 10.0 mi Calm Calm - N/A   Overcast
10:54 PM 66.9 °F 59.0 °F 76% 30.19 in 10.0 mi NNE 8.1 mph - N/A   Overcast
11:54 PM 66.9 °F 57.0 °F 70% 30.19 in 10.0 mi NNE 6.9 mph - N/A   Overcast